Tri-Cities, TN

10:11 AM EDT on April 29, 2017 (GMT -0400)
Tri-Cities Regional Tennessee / Virginia

Weather History for KTRI - June, 2013

Change the Weather History Date:

Friday, June 28, 2013

  Actual Average Record
Temperature  
Mean Temperature 75 °F 74 °F  
Max Temperature 85 °F 85 °F 97 °F (2012)
Min Temperature 65 °F 63 °F 50 °F (1970)
Degree Days  
Heating Degree Days 0 0  
Month to date heating degree days 0 9  
Since 1 June heating degree days 0 9  
Since 1 July heating degree days 4314 4372  
Cooling Degree Days 10 9  
Month to date cooling degree days 213 188  
Year to date cooling degree days 285 261  
Since 1 June cooling degree days 213 188  
Growing Degree Days 26 (Base 50)    
Moisture  
Dew Point 68 °F    
Average Humidity 79    
Maximum Humidity 97    
Minimum Humidity 60    
Precipitation  
Precipitation T in 0.14 in 1.87 in (1947)
Month to date precipitation 7.54 3.63  
Year to date precipitation 32.23 21.02  
Snow  
Snow 0.00 in 0.00 in - ()
Month to date snowfall 0.0 0.0  
Since 1 June snowfall 0.0 0.0  
Since 1 July snowfall 9.2 13.3  
Snow Depth 0.00 in    
Sea Level Pressure  
Sea Level Pressure 29.73 in    
Wind  
Wind Speed 7 mph (WSW)    
Max Wind Speed 18 mph    
Max Gust Speed 24 mph    
Visibility 8 miles    
Events Rain , Thunderstorm    
T = Trace of Precipitation, MM = Missing Value Source: NWS Daily Summary

Daily Weather History Graph

Daily Weather History Graph

Search for Another Location

Airport or City:

Trip Planner

Search our weather history database for the weather conditions in past years. The results will help you decide how hot, cold, wet, or windy it might be!

Date:

Astronomy

Jun. 28, 2013 Rise Set
Actual Time 6:14 AM EDT 8:51 PM EDT
Civil Twilight 5:43 AM EDT 9:22 PM EDT
Nautical Twilight 5:05 AM EDT 10:00 PM EDT
Astronomical Twilight 4:23 AM EDT 10:42 PM EDT
Moon No Moon Rise 12:09 PM EDT (6/28)
Length of Visible Light 15h 38m
Length of Day
14h 37m
Waning Gibbous, 66% of the Moon is Illuminated
Jun 28
Waning Gibbous
Jun 30
Last Quarter
Jul 8
New
Jul 15
First Quarter
Jul 22
Full

Hourly Weather History & Observations

Time (EDT) Temp. Heat Index Dew Point Humidity Pressure Visibility Wind Dir Wind Speed Gust Speed Precip Events Conditions
12:53 AM 71.1 °F - 69.1 °F 93% 29.78 in 6.0 mi SW 5.8 mph - N/A   Scattered Clouds
1:36 AM 72.0 °F - 70.0 °F 93% 29.84 in 5.0 mi SW 3.5 mph - N/A   Overcast
1:53 AM 72.0 °F - 70.0 °F 93% 29.76 in 5.0 mi WSW 3.5 mph - N/A   Overcast
2:53 AM 70.0 °F - 68.0 °F 93% 29.76 in 5.0 mi WSW 5.8 mph - N/A   Overcast
3:53 AM 69.1 °F - 66.9 °F 93% 29.77 in 6.0 mi Calm Calm - N/A   Mostly Cloudy
4:53 AM 69.1 °F - 66.9 °F 93% 29.76 in 7.0 mi Calm Calm - N/A   Mostly Cloudy
5:36 AM 70.0 °F - 66.9 °F 90% 29.84 in 8.0 mi Calm Calm - N/A   Overcast
5:53 AM 70.0 °F - 66.9 °F 90% 29.76 in 8.0 mi Calm Calm - N/A   Overcast
6:38 AM 70.0 °F - 68.0 °F 93% 29.84 in 6.0 mi Calm Calm - N/A   Overcast
6:53 AM 70.0 °F - 68.0 °F 93% 29.76 in 6.0 mi SW 4.6 mph - N/A   Overcast
7:27 AM 71.1 °F - 68.0 °F 90% 29.83 in 5.0 mi SW 4.6 mph - N/A   Overcast
7:53 AM 71.1 °F - 69.1 °F 93% 29.74 in 5.0 mi SW 8.1 mph - N/A   Overcast
8:53 AM 73.9 °F - 70.0 °F 87% 29.73 in 8.0 mi WSW 12.7 mph - N/A   Mostly Cloudy
9:05 AM 75.0 °F - 70.0 °F 84% 29.81 in 9.0 mi West 9.2 mph - N/A   Overcast
9:53 AM 77.0 °F - 70.0 °F 79% 29.72 in 10.0 mi WSW 11.5 mph - N/A   Mostly Cloudy
10:08 AM 77.0 °F - 69.1 °F 76% 29.79 in 10.0 mi WSW 8.1 mph - N/A   Mostly Cloudy
10:40 AM 79.0 °F - 70.0 °F 74% 29.79 in 10.0 mi WSW 8.1 mph - N/A   Mostly Cloudy
10:53 AM 79.0 °F - 70.0 °F 74% 29.70 in 10.0 mi SW 8.1 mph - N/A   Mostly Cloudy
11:53 AM 82.9 °F 86.5 °F 69.1 °F 63% 29.70 in 10.0 mi West 17.3 mph - N/A   Mostly Cloudy
12:53 PM 84.0 °F 87.8 °F 69.1 °F 61% 29.69 in 10.0 mi West 13.8 mph - N/A   Mostly Cloudy
1:16 PM 82.9 °F 85.8 °F 68.0 °F 60% 29.76 in 10.0 mi WSW 16.1 mph - N/A Thunderstorm Thunderstorm
1:53 PM 79.0 °F - 68.0 °F 69% 29.70 in 10.0 mi NNW 6.9 mph - 0.00 in Rain , Thunderstorm Light Thunderstorms and Rain
2:09 PM 80.1 °F 82.7 °F 68.0 °F 67% 29.77 in 10.0 mi WSW 11.5 mph - 0.00 in   Overcast
2:53 PM 79.0 °F - 68.0 °F 69% 29.68 in 10.0 mi West 11.5 mph - 0.00 in   Overcast
3:53 PM 78.1 °F - 64.9 °F 64% 29.65 in 10.0 mi WNW 5.8 mph - 0.00 in   Overcast
4:53 PM 77.0 °F - 66.9 °F 71% 29.65 in 10.0 mi SW 5.8 mph - N/A   Overcast
5:53 PM 78.1 °F - 66.0 °F 66% 29.62 in 10.0 mi SW 6.9 mph - N/A   Mostly Cloudy
6:53 PM 77.0 °F - 69.1 °F 76% 29.62 in 10.0 mi SW 6.9 mph - N/A   Mostly Cloudy
7:53 PM 77.0 °F - 63.0 °F 62% 29.64 in 10.0 mi SW 8.1 mph - N/A   Scattered Clouds
8:53 PM 72.0 °F - 66.0 °F 81% 29.64 in 10.0 mi SW 9.2 mph - N/A   Scattered Clouds
9:53 PM 71.1 °F - 66.0 °F 84% 29.65 in 10.0 mi WSW 9.2 mph - N/A   Scattered Clouds
10:53 PM 69.1 °F - 66.0 °F 90% 29.66 in 10.0 mi SW 3.5 mph - N/A   Scattered Clouds
11:53 PM 68.0 °F - 66.0 °F 93% 29.65 in 9.0 mi Calm Calm - N/A   Partly Cloudy